Time,TemperatureF,DewpointF,PressureIn,WindDirection,WindDirectionDegrees,WindSpeedMPH,WindSpeedGustMPH,Humidity,HourlyPrecipIn,Conditions,Clouds,dailyrainin,SolarRadiationWatts/m^2,SoftwareType,DateUTC
2013-09-20 00:00:00,55.0,45.0,-100.00,South,189,3.0,7.0,68,-99.99,,,0.00,0.000000,,2013-09-20 07:00:00,
2013-09-20 00:42:00,55.0,45.0,-100.00,South,189,3.0,7.0,68,-99.99,,,0.00,0.000000,,2013-09-20 07:42:00,
2013-09-20 00:53:00,55.0,45.0,-100.00,South,189,3.0,7.0,68,-99.99,,,0.00,0.000000,,2013-09-20 07:53:00,
2013-09-20 01:00:00,52.0,44.0,-100.00,South,177,3.0,6.0,73,-99.99,,,0.00,0.000000,,2013-09-20 08:00:00,
2013-09-20 01:42:00,52.0,44.0,-100.00,South,177,3.0,6.0,73,-99.99,,,0.00,0.000000,,2013-09-20 08:42:00,
2013-09-20 01:52:00,52.0,44.0,-100.00,South,177,3.0,6.0,73,-99.99,,,0.00,0.000000,,2013-09-20 08:52:00,
2013-09-20 02:00:00,52.0,44.0,-100.00,SSE,162,3.0,5.0,73,-99.99,,,0.00,0.000000,,2013-09-20 09:00:00,
2013-09-20 02:43:00,52.0,44.0,-100.00,SSE,162,3.0,5.0,73,-99.99,,,0.00,0.000000,,2013-09-20 09:43:00,
2013-09-20 02:53:00,52.0,44.0,-100.00,SSE,162,3.0,5.0,73,-99.99,,,0.00,0.000000,,2013-09-20 09:53:00,
2013-09-20 03:00:00,49.0,42.0,-100.00,ESE,122,2.0,4.0,78,-99.99,,,0.00,0.000000,,2013-09-20 10:00:00,
2013-09-20 03:42:00,49.0,42.0,-100.00,ESE,122,2.0,4.0,78,-99.99,,,0.00,0.000000,,2013-09-20 10:42:00,
2013-09-20 03:53:00,49.0,42.0,-100.00,ESE,122,2.0,4.0,78,-99.99,,,0.00,0.000000,,2013-09-20 10:53:00,
2013-09-20 04:00:00,48.0,43.0,-100.00,ESE,102,1.0,3.0,82,-99.99,,,0.00,0.000000,,2013-09-20 11:00:00,
2013-09-20 04:42:00,48.0,43.0,-100.00,ESE,102,1.0,3.0,82,-99.99,,,0.00,0.000000,,2013-09-20 11:42:00,
2013-09-20 04:52:00,48.0,43.0,-100.00,ESE,102,1.0,3.0,82,-99.99,,,0.00,0.000000,,2013-09-20 11:52:00,
2013-09-20 05:00:00,47.0,42.0,-100.00,SSE,167,2.0,4.0,80,-99.99,,,0.00,0.000000,,2013-09-20 12:00:00,
2013-09-20 05:42:00,47.0,42.0,-100.00,SSE,167,2.0,4.0,80,-99.99,,,0.00,0.000000,,2013-09-20 12:42:00,
2013-09-20 05:52:00,47.0,42.0,-100.00,SSE,167,2.0,4.0,80,-99.99,,,0.00,0.000000,,2013-09-20 12:52:00,
2013-09-20 06:00:00,46.0,42.0,-100.00,SE,141,2.0,4.0,85,-99.99,,,0.00,0.000000,,2013-09-20 13:00:00,
2013-09-20 06:42:00,46.0,42.0,-100.00,SE,141,2.0,4.0,85,-99.99,,,0.00,0.000000,,2013-09-20 13:42:00,
2013-09-20 06:52:00,46.0,42.0,-100.00,SE,141,2.0,4.0,85,-99.99,,,0.00,0.000000,,2013-09-20 13:52:00,
2013-09-20 07:00:00,44.0,40.0,-100.00,SSE,160,1.0,2.0,85,-99.99,,,0.00,6.510000,,2013-09-20 14:00:00,
2013-09-20 07:42:00,44.0,40.0,-100.00,SSE,160,1.0,2.0,85,-99.99,,,0.00,6.510000,,2013-09-20 14:42:00,
2013-09-20 07:52:00,44.0,40.0,-100.00,SSE,160,1.0,2.0,85,-99.99,,,0.00,6.510000,,2013-09-20 14:52:00,
2013-09-20 08:00:00,49.0,43.0,-100.00,SSE,159,2.0,3.0,80,-99.99,,,0.00,164.220001,,2013-09-20 15:00:00,
2013-09-20 08:44:00,49.0,43.0,-100.00,SSE,159,2.0,3.0,80,-99.99,,,0.00,164.220001,,2013-09-20 15:44:00,
2013-09-20 08:54:00,49.0,43.0,-100.00,SSE,159,2.0,3.0,80,-99.99,,,0.00,164.220001,,2013-09-20 15:54:00,
2013-09-20 09:00:00,55.0,44.0,-100.00,ESE,120,1.0,4.0,66,-99.99,,,0.00,388.519989,,2013-09-20 16:00:00,
2013-09-20 09:42:00,55.0,44.0,-100.00,ESE,120,1.0,4.0,66,-99.99,,,0.00,388.519989,,2013-09-20 16:42:00,
2013-09-20 09:53:00,55.0,44.0,-100.00,ESE,120,1.0,4.0,66,-99.99,,,0.00,388.519989,,2013-09-20 16:53:00,
2013-09-20 10:00:00,58.0,45.0,-100.00,East,99,1.0,3.0,61,-99.99,,,0.00,363.649994,,2013-09-20 17:00:00,
2013-09-20 10:42:00,58.0,45.0,-100.00,East,99,1.0,3.0,61,-99.99,,,0.00,363.649994,,2013-09-20 17:42:00,
2013-09-20 10:53:00,58.0,45.0,-100.00,East,99,1.0,3.0,61,-99.99,,,0.00,363.649994,,2013-09-20 17:53:00,
2013-09-20 11:00:00,64.0,46.0,-100.00,NNE,28,1.0,3.0,52,-99.99,,,0.00,525.429993,,2013-09-20 18:00:00,
2013-09-20 11:52:00,64.0,46.0,-100.00,NNE,28,1.0,3.0,52,-99.99,,,0.00,525.429993,,2013-09-20 18:52:00,
2013-09-20 12:00:00,67.0,47.0,-100.00,WNW,287,1.0,4.0,47,-99.99,,,0.00,500.910004,,2013-09-20 19:00:00,
2013-09-20 12:42:00,67.0,47.0,-100.00,WNW,287,1.0,4.0,47,-99.99,,,0.00,500.910004,,2013-09-20 19:42:00,
2013-09-20 12:53:00,67.0,47.0,-100.00,WNW,287,1.0,4.0,47,-99.99,,,0.00,500.910004,,2013-09-20 19:53:00,
2013-09-20 13:00:00,72.0,44.0,-100.00,NW,315,2.0,4.0,36,-99.99,,,0.00,646.179993,,2013-09-20 20:00:00,
2013-09-20 13:42:00,72.0,44.0,-100.00,NW,315,2.0,4.0,36,-99.99,,,0.00,646.179993,,2013-09-20 20:42:00,
2013-09-20 13:52:00,72.0,44.0,-100.00,NW,315,2.0,4.0,36,-99.99,,,0.00,646.179993,,2013-09-20 20:52:00,
2013-09-20 14:00:00,75.0,41.0,-100.00,West,280,2.0,5.0,29,-99.99,,,0.00,627.119995,,2013-09-20 21:00:00,
2013-09-20 14:44:00,75.0,41.0,-100.00,West,280,2.0,5.0,29,-99.99,,,0.00,627.119995,,2013-09-20 21:44:00,
2013-09-20 14:54:00,75.0,41.0,-100.00,West,280,2.0,5.0,29,-99.99,,,0.00,627.119995,,2013-09-20 21:54:00,
2013-09-20 15:00:00,77.0,46.0,-100.00,NW,323,3.0,13.0,33,-99.99,,,0.00,610.039978,,2013-09-20 22:00:00,
2013-09-20 15:43:00,77.0,46.0,-100.00,NW,323,3.0,13.0,33,-99.99,,,0.00,610.039978,,2013-09-20 22:43:00,
2013-09-20 15:53:00,77.0,46.0,-100.00,NW,323,3.0,13.0,33,-99.99,,,0.00,610.039978,,2013-09-20 22:53:00,
2013-09-20 16:00:00,72.0,47.0,-100.00,WNW,292,8.0,20.0,41,-99.99,,,0.00,231.160004,,2013-09-20 23:00:00,
2013-09-20 16:42:00,72.0,47.0,-100.00,WNW,292,8.0,20.0,41,-99.99,,,0.00,231.160004,,2013-09-20 23:42:00,
2013-09-20 16:53:00,72.0,47.0,-100.00,WNW,292,8.0,20.0,41,-99.99,,,0.00,231.160004,,2013-09-20 23:53:00,
2013-09-20 17:00:00,70.0,50.0,-100.00,WNW,288,9.0,21.0,49,-99.99,,,0.00,135.979996,,2013-09-21 00:00:00,
2013-09-20 17:42:00,70.0,50.0,-100.00,WNW,288,9.0,21.0,49,-99.99,,,0.00,135.979996,,2013-09-21 00:42:00,
2013-09-20 17:52:00,70.0,50.0,-100.00,WNW,288,9.0,21.0,49,-99.99,,,0.00,135.979996,,2013-09-21 00:52:00,
2013-09-20 18:00:00,69.0,53.0,-100.00,WNW,286,10.0,24.0,55,-99.99,,,0.00,47.880001,,2013-09-21 01:00:00,
2013-09-20 18:42:00,69.0,53.0,-100.00,WNW,286,10.0,24.0,55,-99.99,,,0.00,47.880001,,2013-09-21 01:42:00,
2013-09-20 18:52:00,69.0,53.0,-100.00,WNW,286,10.0,24.0,55,-99.99,,,0.00,47.880001,,2013-09-21 01:52:00,
2013-09-20 19:00:00,67.0,50.0,-100.00,WNW,288,7.0,18.0,54,-99.99,,,0.00,11.390000,,2013-09-21 02:00:00,
2013-09-20 19:42:00,67.0,50.0,-100.00,WNW,288,7.0,18.0,54,-99.99,,,0.00,11.390000,,2013-09-21 02:42:00,
2013-09-20 19:52:00,67.0,50.0,-100.00,WNW,288,7.0,18.0,54,-99.99,,,0.00,11.390000,,2013-09-21 02:52:00,
2013-09-20 20:00:00,66.0,50.0,-100.00,WNW,300,7.0,16.0,57,-99.99,,,0.00,0.000000,,2013-09-21 03:00:00,
2013-09-20 20:44:00,66.0,50.0,-100.00,WNW,300,7.0,16.0,57,-99.99,,,0.00,0.000000,,2013-09-21 03:44:00,
2013-09-20 20:55:00,66.0,50.0,-100.00,WNW,300,7.0,16.0,57,-99.99,,,0.00,0.000000,,2013-09-21 03:55:00,
2013-09-20 21:00:00,63.0,51.0,-100.00,WNW,293,7.0,16.0,66,-99.99,,,0.00,0.000000,,2013-09-21 04:00:00,
2013-09-20 21:43:00,63.0,51.0,-100.00,WNW,293,7.0,16.0,66,-99.99,,,0.00,0.000000,,2013-09-21 04:43:00,
2013-09-20 21:54:00,63.0,51.0,-100.00,WNW,293,7.0,16.0,66,-99.99,,,0.00,0.000000,,2013-09-21 04:54:00,
2013-09-20 22:00:00,58.0,55.0,-100.00,East,101,2.0,4.0,89,-99.99,,,0.00,0.000000,,2013-09-21 05:00:00,
2013-09-20 22:43:00,58.0,55.0,-100.00,East,101,2.0,4.0,89,-99.99,,,0.00,0.000000,,2013-09-21 05:43:00,
2013-09-20 22:53:00,58.0,55.0,-100.00,East,101,2.0,4.0,89,-99.99,,,0.00,0.000000,,2013-09-21 05:53:00,
2013-09-20 23:00:00,57.0,55.0,-100.00,SW,233,1.0,3.0,92,-99.99,,,0.00,0.000000,,2013-09-21 06:00:00,
2013-09-20 23:42:00,57.0,55.0,-100.00,SW,233,1.0,3.0,92,-99.99,,,0.00,0.000000,,2013-09-21 06:42:00,
2013-09-20 23:52:00,57.0,55.0,-100.00,SW,233,1.0,3.0,92,-99.99,,,0.00,0.000000,,2013-09-21 06:52:00,